Location: Unspecified
(0.0000°N, 0.0000°E)
Time: 03:46:49
(UTC+00:00)

deb Centaur AC-2 - Pass Details

Date: 09 August 2024
Orbit: 582 x 982 km, 29.9° (Epoch: 09 September)

Event Time Altitude Azimuth Distance (km) Brightness Sun altitude
Exits shadow 04:01:30 88° 126° (SE) 957 ? -29.7°
Drops below altitude 10° 04:07:46 10° 59° (ENE) 2,564 ? -28.2°
Sets 04:10:14 0° 58° (ENE) 3,446 ? -27.7°
